Location: Dallas
(32.7833°N, 96.8000°W)
Time: 00:13:26
(UTC-06:00)

Envisat - Pass Details

Date: 28 January 2021
Orbit: 764 x 766 km, 98.1° (Epoch: 04 March)

Event Time Altitude Azimuth Distance (km) Brightness Sun altitude
Rises 06:46:06 0° 1° (N) 3,235 6.1 -8.5°
Reaches altitude 10° 06:48:33 10° 353° (N) 2,305 5.3 -8.0°
Maximum altitude 06:53:09 36° 288° (WNW) 1,196 3.5 -7.0°
Drops below altitude 10° 06:57:44 10° 223° (SW) 2,292 5.2 -6.1°
Sets 07:00:11 0° 215° (SW) 3,214 6.1 -5.6°
